Regional Weather Roundup
Issued by NWS

Home | Current Version | Previous Version | Graphics & Text | Print | Product List | Glossary On
Versions: 1 2 3 4 5 6 7 8 9 10 11 12 13 14 15 16 17 18 19 20 21 22 23 24 25 26 27 28 29 30 31 32 33 34 35 36 37 38 39 40 41 42 43 44 45 46 47 48 49 50
000
ASUS44 KMEG 022100
RWRTN
TENNESSEE HOURLY STATE WEATHER ROUNDUP
NATIONAL WEATHER SERVICE MEMPHIS TN
400 PM CDT MON MAY 02 2016

TNZ002-004-019-021-049-052-054-088>092-022200-
WEST TENNESSEE

CITY           SKY/WX    TMP DP  RH WIND       PRES   REMARKS
MEMPHIS INTL   CLOUDY    66  57  72 N7        29.95F
NWS MEMPHIS      N/A     64 N/A N/A MISG        N/A
JACKSON        CLOUDY    61  57  87 CALM      29.98F
DYERSBURG      PTSUNNY   64  54  68 NW3         N/A
UNION CITY     PTSUNNY   66  54  63 W8        29.97R
LEXINGTON      CLOUDY    61  59  94 W3        29.95F
$$

TNZ008-025-027-028-033-062-065-066-022200-
NORTH MIDDLE TENNESSEE

CITY           SKY/WX    TMP DP  RH WIND       PRES   REMARKS
NASHVILLE      CLOUDY    64  60  87 VRB3      29.94F
CLARKSVILLE    CLOUDY    60  55  83 N7        29.95F
COOKEVILLE     CLOUDY    63  61  94 SE6       29.92F
CROSSVILLE     CLOUDY    63  55  75 CALM      29.98F
$$

TNZ061-075-076-078-094-096-097-022200-
SOUTH MIDDLE TENNESSEE

CITY           SKY/WX    TMP DP  RH WIND       PRES   REMARKS
TULLAHOMA      SUNNY     61  61 100 E9        29.90F
WINCHESTER     CLOUDY    61  59  94 E7        29.93F
MCMINNVILLE    MOSUNNY   63  63 100 SE8       29.93F
COLUMBIA       PTSUNNY  N/A N/A N/A CALM      29.91F
SHELBYVILLE    PTSUNNY   64  61  88 N5        29.93R
$$

TNZ017-018-042-046-047-022200-
NORTHEAST TENNESSEE

CITY           SKY/WX    TMP DP  RH WIND       PRES   REMARKS
TRI CITIES     CLOUDY    78  61  55 W8        29.91F
$$

TNZ012-013-036-069-073-074-022200-
CENTRAL EAST TENNESSEE

CITY           SKY/WX    TMP DP  RH WIND       PRES   REMARKS
KNOXVILLE      CLOUDY    74  65  73 NW7       29.89
OAK RIDGE      LGT RAIN  70  67  90 VRB5      29.94S FOG
GATLINBURG     PTCLDY    72  63  73 CALM      29.89F
$$

TNZ083-085-099-022200-
SOUTHEAST TENNESSEE

CITY           SKY/WX    TMP DP  RH WIND       PRES   REMARKS
CHATTANOOGA    CLOUDY    75  65  70 W10       29.90F
$$

SKY/WX REPORTED AS FAIR MEANS FEW OR NO CLOUDS BELOW
12 THOUSAND FEET.





USA.gov is the U.S. government's official web portal to all federal, state and local government web resources and services.